Aérodrome :
LOGIN :

S'inscrire | Disclaimer

   EN    FR    IT 

 










Légende :    VFR   VFR Marginal   IFR   IFR Intensif   IFR Très Intensif
Visi : 
Plafond : 
>= 8 km
>= 3000ft
5 à 8 km
1000 à 3000 ft
1500m à 5 km
500 à 1000 ft
800 à 1500m
200 à 500 ft
< 800m
< 200 ft
Symboles :   Orages  Brouillard  Fortes neiges  Fortes précipitations  Vent > 20 kt
SIGMETs :   Divers  Orages  Givrage  Turbulence  Onde Orograph.  Cendres Volcan.







- Altitude de l'aérodrome : 44 ft
- Code IATA : SOU
- Voir les cartes d'approche


EGHI - Southampton

DERNIER METAR :
  • 211250Z VRB04KT 9999 FEW038 SCT049 21/10 Q1015

METARs EXPIRÉS :
  • 211220Z 07004KT 360V120 9999 FEW035 SCT049 20/09 Q1015
  • 211150Z VRB03KT 9999 FEW035 20/10 Q1015
  • 211120Z VRB04KT 9999 FEW028 20/10 Q1015
  • 211050Z 07005KT 360V130 9999 FEW028 19/10 Q1015
  • 211020Z VRB03KT CAVOK 19/10 Q1016

TAF TAF EGHI
Valide du 21 à 12h jusqu'au 21 à 21h UTC


211100Z 2112/2121 04005KT 9999 FEW045
PROB40
TEMPO 2113/2121 4000 +SHRA TSGR
ATIS : +44 23 8062 7103
Pas de NOTAMs connus pour ce terrain.



MET'MAP, la Météo Aéronautique d'un coup d'oeil ! - Copyright ORBIFLY Décembre 2007 - Disclaimer

ORBIFLY MET'MAP TEAM :

Programmation & Développement : Alexandra Zaïnal
Conception & Développement : Baudouin d'Aumeries
Co-Programmation & Développement : Marc-Olivier Méhu
Soutien technique & logistique : Manuel Goepfert

Contact : metmap@orbifly.com




SOURCES & CREDITS :

   NOAA